1528448400.01,30547,22.69,74320.8,17.27,5.49,7.15,0,*40
1528448401.23,30548,22.69,74322.3,17.23,5.07,6.69,0,*4B
1528448402.48,30549,22.69,74320.0,17.23,5.27,6.91,0,*4F
1528448403.71,30550,22.69,74322.3,17.23,5.37,6.91,0,*46
1528448404.9,30551,22.69,74324.5,17.21,5.77,7.33,0,*48
1528448406.11,30552,22.69,74322.0,17.21,6.25,7.83,0,*44
1528448407.33,30553,22.69,74320.3,17.21,6.33,7.73,0,*4D
1528448408.57,30554,22.69,74320.0,17.21,6.47,7.91,0,*45
1528448409.82,30555,22.69,74318.5,17.23,6.53,7.91,0,*43
1528448411.06,30556,22.69,74322.0,17.23,6.21,7.47,0,*4E
1528448412.29,30557,22.69,74322.3,17.23,6.33,7.47,0,*4C
1528448413.49,30558,22.69,74322.5,17.21,6.17,7.33,0,*44
1528448414.68,30559,22.69,74322.5,17.21,6.75,7.79,0,*4F
1528448415.86,30560,22.69,74320.0,17.21,6.79,7.79,0,*49
1528448417.07,30561,22.69,74320.3,17.21,7.05,7.83,0,*47
1528448418.31,30562,22.69,74318.8,17.21,7.23,8.13,0,*46
1528448419.56,30563,22.69,74322.8,17.23,7.15,7.83,0,*46
1528448420.76,30564,22.69,74316.5,17.21,6.79,7.47,0,*40
1528448421.98,30565,22.69,74322.5,17.21,6.93,7.69,0,*49
1528448423.21,30566,22.69,74318.3,17.23,6.69,7.37,0,*46
1528448424.44,30567,22.69,74318.3,17.21,7.11,7.83,0,*44
1528448425.67,30568,22.69,74318.5,17.23,7.11,7.79,0,*4C
1528448426.9,30569,22.69,74318.3,17.21,7.15,7.83,0,*4E
1528448428.13,30570,22.69,74318.0,17.21,7.23,7.83,0,*43
1528448429.36,30571,22.69,74320.0,17.23,7.01,7.61,0,*4C
1528448430.6,30572,22.69,74320.3,17.21,7.11,7.73,0,*4F
1528448431.81,30573,22.69,74316.0,17.21,7.23,7.79,0,*45
1528448433.01,30574,22.69,74320.3,17.19,7.01,7.59,0,*4B
1528448434.24,30575,22.69,74322.3,17.19,7.19,7.59,0,*43
1528448435.48,30576,22.69,74322.8,17.21,7.15,7.69,0,*44
1528448436.71,30577,22.69,74324.3,17.19,7.11,7.59,0,*49
1528448437.94,30578,22.69,74318.3,17.19,7.19,7.59,0,*4E
1528448439.18,30579,22.69,74320.5,17.19,7.29,7.69,0,*4F
1528448440.41,30580,22.69,74320.0,17.19,7.11,7.51,0,*49
1528448441.62,30581,22.69,74322.0,17.21,7.15,7.59,0,*4F
1528448442.8,30582,22.69,74322.8,17.21,7.37,7.79,0,*4E
1528448444.02,30583,22.69,74320.0,17.21,7.59,7.95,0,*45
1528448445.22,30584,22.69,74316.5,17.21,7.45,7.83,0,*48
1528448446.43,30585,22.69,74318.8,17.23,7.59,8.05,0,*47
1528448447.68,30586,22.69,74320.0,17.23,7.47,7.91,0,*49
1528448448.89,30587,22.69,74322.3,17.21,7.11,7.55,0,*41
1528448450.15,30588,22.69,74316.8,17.23,7.15,7.61,0,*4F
1528448451.38,30589,22.69,74316.8,17.23,7.33,7.83,0,*46
1528448452.58,30590,22.69,74322.0,17.23,7.01,7.59,0,*48
1528448453.78,30591,22.69,74320.8,17.23,7.01,7.59,0,*49
1528448455.04,30592,22.69,74320.8,17.23,6.57,7.11,0,*44
1528448456.27,30593,22.69,74320.8,17.27,6.25,6.73,0,*41
1528448457.51,30594,22.69,74320.3,17.23,6.33,6.87,0,*4E
1528448458.71,30595,22.69,74322.0,17.21,7.01,7.69,0,*4C
1528448459.97,30596,22.69,74322.3,17.23,7.11,7.73,0,*47
1528448461.21,30597,22.69,74318.8,17.23,7.11,7.79,0,*4C
1528448462.42,30598,22.69,74320.0,17.23,7.05,7.79,0,*46
1528448463.65,30599,22.69,74316.8,17.23,7.27,8.05,0,*43
1528448464.89,30600,22.69,74320.3,17.21,7.15,7.95,0,*45
1528448466.12,30601,22.69,74322.0,17.27,7.19,8.15,0,*49
1528448467.34,30602,22.69,74320.0,17.27,7.29,8.27,0,*48
1528448468.57,30603,22.69,74318.0,17.27,7.05,7.95,0,*41
1528448469.8,30604,22.69,74318.8,17.29,7.19,8.33,0,*46
1528448471.03,30605,22.69,74318.5,17.29,7.11,8.29,0,*44
1528448472.25,30606,22.69,74320.3,17.29,6.97,8.13,0,*41
1528448473.48,30607,22.69,74322.5,17.31,6.87,8.09,0,*43
1528448474.72,30608,22.69,74318.5,17.33,6.47,7.69,0,*4B
1528448475.96,30609,22.69,74320.5,17.31,6.33,7.65,0,*47
1528448477.15,30610,22.69,74320.3,17.29,6.33,7.55,0,*45
1528448478.33,30611,22.69,74316.0,17.29,6.07,7.41,0,*46
1528448479.55,30612,22.69,74322.0,17.27,6.21,7.51,0,*4E
1528448480.78,30613,22.69,74318.0,17.27,6.13,7.51,0,*4E
1528448481.97,30614,22.69,74316.5,17.29,5.99,7.29,0,*49
1528448483.19,30615,22.69,74318.3,17.29,5.93,7.29,0,*42
1528448484.4,30616,22.69,74320.3,17.29,6.13,7.45,0,*40
1528448485.65,30617,22.69,74318.3,17.27,5.89,7.19,0,*46
1528448486.89,30618,22.69,74320.3,17.27,6.13,7.37,0,*45
1528448488.16,30619,22.69,74318.5,17.23,6.35,7.73,0,*44
1528448489.39,30620,22.69,74316.8,17.23,6.75,7.95,0,*42
1528448490.66,30621,22.69,74316.5,17.27,6.61,7.77,0,*4E
1528448491.89,30622,22.69,74318.5,17.27,6.39,7.41,0,*45
1528448493.12,30623,22.69,74322.5,17.23,6.43,7.45,0,*49
1528448494.38,30624,22.69,74322.0,17.23,6.57,7.61,0,*4D
1528448495.65,30625,22.69,74322.3,17.23,6.65,7.61,0,*4D
1528448496.88,30626,22.69,74318.5,17.23,6.75,7.73,0,*4C
1528448498.12,30627,22.69,74320.8,17.23,6.93,7.73,0,*45
1528448499.33,30628,22.69,74320.5,17.21,6.11,6.87,0,*48
1528448500.57,30629,22.69,74318.5,17.21,6.43,7.11,0,*40
1528448501.78,30630,22.69,74322.0,17.21,6.35,6.93,0,*42
1528448503.01,30631,22.69,74322.5,17.17,6.61,7.15,0,*48
1528448504.2,30632,22.69,74322.0,17.17,6.69,7.09,0,*4E
1528448505.4,30633,22.69,74320.0,17.17,6.57,6.93,0,*40
1528448506.64,30634,22.69,74316.5,17.15,6.83,7.15,0,*43
1528448507.84,30635,22.69,74320.8,17.17,5.89,6.03,0,*4F
1528448509.06,30636,22.69,74322.0,17.13,4.97,5.07,0,*41
1528448510.27,30637,22.69,74322.5,17.11,5.15,5.29,0,*45
1528448511.48,30638,22.69,74322.5,17.09,5.01,5.15,0,*49
1528448512.7,30639,22.69,74324.3,17.05,4.63,4.81,0,*4D
1528448513.93,30640,22.69,74324.3,17.01,4.85,4.97,0,*48
1528448515.12,30641,22.69,74322.0,16.99,5.41,5.59,0,*43
1528448516.33,30642,22.69,74320.0,16.99,5.73,5.99,0,*4D
1528448517.57,30643,22.69,74322.0,16.97,5.11,5.27,0,*43
1528448518.77,30644,22.69,74322.5,16.95,5.81,6.07,0,*4E
1528448520.0,30645,22.69,74320.5,16.95,5.93,6.17,0,*4D
1528448521.23,30646,22.69,74320.3,16.95,5.89,6.13,0,*41
1528448522.44,30647,22.69,74324.8,16.91,5.85,6.11,0,*4A
1528448523.63,30648,22.69,74320.0,16.91,5.59,6.03,0,*47
1528448524.81,30649,22.69,74320.8,16.91,5.49,5.71,0,*41
1528448526.02,30650,22.69,74320.3,16.91,4.81,5.05,0,*4F
1528448527.2,30651,22.69,74322.5,16.87,5.11,5.49,0,*49
1528448528.41,30652,22.69,74318.3,16.87,5.85,6.25,0,*4E
1528448529.64,30653,22.69,74320.3,16.87,6.13,6.53,0,*42
1528448530.85,30654,22.69,74320.5,16.87,4.97,5.33,0,*4E
1528448532.08,30655,22.69,74320.0,16.85,4.97,5.45,0,*4C
1528448533.29,30656,22.69,74322.3,16.83,5.11,5.51,0,*43
1528448534.5,30657,22.69,74320.5,16.83,5.11,5.55,0,*46
1528448535.7,30658,22.69,74320.3,16.83,5.29,5.77,0,*42
1528448536.93,30659,22.69,74320.0,16.81,5.37,5.85,0,*43
1528448538.16,30660,22.69,74320.3,16.77,5.73,6.29,0,*45
1528448539.41,30661,22.69,74320.5,16.77,6.17,6.61,0,*49
1528448540.67,30662,22.69,74318.3,16.77,6.35,6.73,0,*49
1528448541.9,30663,22.69,74320.3,16.77,5.55,5.95,0,*46
1528448543.16,30664,22.69,74318.8,16.81,6.43,6.91,0,*4B
1528448544.4,30665,22.69,74318.3,16.77,6.51,7.05,0,*4C
1528448545.63,30666,22.69,74322.5,16.77,6.65,7.09,0,*44
1528448546.9,30667,22.69,74316.8,16.77,6.51,6.87,0,*45
1528448548.1,30668,22.69,74318.0,16.73,6.57,6.79,0,*49
1528448549.33,30669,22.69,74318.0,16.75,6.69,7.01,0,*4D
1528448550.58,30670,22.69,74320.3,16.75,6.57,6.73,0,*4C
1528448551.81,30671,22.69,74322.3,16.75,6.73,7.05,0,*4B
1528448553.04,30672,22.69,74320.8,16.75,6.73,7.05,0,*48
1528448554.23,30673,22.69,74320.0,16.73,6.93,7.29,0,*4F
1528448555.46,30674,22.69,74320.5,16.75,6.61,7.05,0,*4D
1528448556.68,30675,22.69,74320.5,16.75,6.57,7.01,0,*4D
1528448557.92,30676,22.69,74320.3,16.73,5.93,6.39,0,*49
1528448559.13,30677,22.69,74318.3,16.73,5.99,6.47,0,*4B
1528448560.34,30678,22.69,74320.3,16.73,5.99,6.47,0,*44
1528448561.57,30679,22.69,74318.8,16.73,6.57,7.15,0,*42
1528448562.81,30680,22.69,74326.3,16.71,6.35,7.01,0,*47
1528448564.02,30681,22.69,74322.3,16.73,6.33,6.91,0,*4A
1528448565.29,30682,22.69,74320.3,16.71,6.65,7.27,0,*44
1528448566.53,30683,22.69,74322.3,16.71,6.97,7.69,0,*42
1528448567.74,30684,22.69,74318.5,16.75,6.93,7.79,0,*44
1528448568.95,30685,22.69,74318.5,16.73,6.91,7.59,0,*43
1528448570.15,30686,22.69,74320.8,16.73,6.61,7.41,0,*46
1528448571.36,30687,22.69,74320.5,16.73,6.73,7.41,0,*44
1528448572.6,30688,22.69,74322.0,16.73,6.47,7.15,0,*4D
1528448573.8,30689,22.69,74318.8,16.73,6.47,7.09,0,*41
1528448575.04,30690,22.69,74320.3,16.73,6.51,7.15,0,*43
1528448576.25,30691,22.69,74320.0,16.73,6.73,7.37,0,*42
1528448577.49,30692,22.69,74320.0,16.75,6.73,7.37,0,*47
1528448578.72,30693,22.69,74320.5,16.75,6.93,7.47,0,*4F
1528448579.92,30694,22.69,74322.5,16.73,6.61,7.01,0,*41
1528448581.16,30695,22.69,74318.0,16.75,6.47,6.79,0,*4C
1528448582.36,30696,22.69,74318.3,16.73,6.25,6.61,0,*44
1528448583.57,30697,22.69,74322.5,16.73,6.61,6.93,0,*48
1528448584.78,30698,22.69,74322.8,16.73,6.51,6.79,0,*40
1528448586.02,30699,22.69,74320.3,16.73,6.13,6.47,0,*4A
1528448587.22,30700,22.69,74322.8,16.73,5.63,5.81,0,*46
1528448588.42,30701,22.69,74320.0,16.69,5.49,5.73,0,*49
1528448589.63,30702,22.69,74316.8,16.69,6.11,6.43,0,*44
1528448590.89,30703,22.69,74316.8,16.71,6.35,6.69,0,*42
1528448592.12,30704,22.69,74322.0,16.71,6.33,6.57,0,*4E
1528448593.34,30705,22.69,74318.5,16.69,5.77,5.89,0,*45
1528448594.55,30706,22.69,74322.3,16.69,5.63,5.85,0,*4F
1528448595.77,30707,22.69,74320.8,16.69,6.43,6.57,0,*43
1528448597.0,30708,22.69,74320.0,16.69,6.53,6.53,0,*49
1528448598.2,30709,22.69,74316.8,16.71,5.59,5.63,0,*48
1528448599.38,30710,22.69,74318.5,16.69,5.49,5.49,0,*40
1528448600.58,30711,22.69,74322.5,16.69,5.41,5.51,0,*40
1528448601.78,30712,22.69,74318.3,16.69,5.59,5.73,0,*4A
1528448603.01,30713,22.69,74316.5,16.71,5.67,5.77,0,*4B
1528448604.22,30714,22.69,74320.8,16.69,5.89,6.07,0,*41
1528448605.46,30715,22.69,74318.3,16.71,6.21,6.35,0,*49
1528448606.66,30716,22.69,74316.8,16.73,6.69,6.83,0,*49
1528448607.86,30717,22.69,74316.8,16.73,7.37,7.47,0,*4B
1528448609.1,30718,22.69,74322.0,16.75,8.19,8.55,0,*4D
1528448610.34,30719,22.69,74318.3,16.81,9.01,9.43,0,*49
1528448611.58,30720,22.69,74322.3,16.85,9.91,10.19,0,*79
1528448612.86,30721,22.69,74316.8,16.89,10.31,10.75,0,*4C
1528448614.1,30722,22.69,74318.3,16.97,11.41,11.93,0,*4F
1528448615.35,30723,22.69,74318.8,17.05,11.45,12.03,0,*4A
1528448616.58,30724,22.69,74318.8,17.13,11.99,12.57,0,*4A
1528448617.84,30725,22.69,74316.0,17.19,13.01,13.55,0,*41
1528448619.11,30726,22.69,74320.0,17.31,13.55,14.11,0,*4E
1528448620.35,30727,22.69,74318.5,17.39,13.75,14.19,0,*4D
1528448621.59,30728,22.69,74320.3,17.51,13.71,14.19,0,*48
1528448622.85,30729,22.69,74318.5,17.59,13.85,14.25,0,*45
1528448624.09,30730,22.69,74316.8,17.67,14.61,15.11,0,*4B
1528448625.33,30731,22.69,74316.8,17.77,14.09,14.49,0,*49
1528448626.6,30732,22.69,74318.5,17.85,13.17,13.55,0,*45
1528448627.82,30733,22.69,74320.0,17.95,11.57,11.93,0,*4B
1528448629.09,30734,22.69,74320.3,17.97,11.31,11.79,0,*4A
1528448630.29,30735,22.69,74322.3,17.99,10.65,11.17,0,*4D
1528448631.53,30736,22.69,74318.3,18.03,10.37,10.79,0,*4C
1528448632.77,30737,22.69,74316.5,18.07,9.95,10.37,0,*73
1528448633.99,30738,22.69,74318.0,18.07,9.75,10.09,0,*7F
1528448635.21,30739,22.69,74318.5,18.09,10.03,10.31,0,*42
1528448636.45,30740,22.69,74318.5,18.11,9.81,9.91,0,*45
1528448637.68,30741,22.69,74320.0,18.11,9.61,9.71,0,*44
1528448638.92,30742,22.69,74316.5,18.11,9.77,9.67,0,*47
1528448640.13,30743,22.69,74316.5,18.13,9.71,9.57,0,*41
1528448641.4,30744,22.69,74318.8,18.19,9.85,9.57,0,*47
1528448642.61,30745,22.69,74316.8,18.13,10.03,9.57,0,*7A
1528448643.85,30746,22.69,74320.3,18.19,10.13,9.57,0,*72
1528448645.08,30747,22.69,74318.3,18.21,9.77,9.19,0,*48
1528448646.29,30748,22.69,74318.5,18.21,9.75,8.97,0,*42
1528448647.52,30749,22.69,74320.3,18.23,9.71,9.15,0,*4E
1528448648.73,30750,22.69,74322.8,18.25,9.71,8.93,0,*4F
1528448649.95,30751,22.69,74322.3,18.25,9.75,8.93,0,*4A
1528448651.18,30752,22.69,74320.0,18.25,9.61,8.59,0,*4A
1528448652.37,30753,22.69,74322.0,18.25,9.03,8.01,0,*42
1528448653.6,30754,22.69,74320.8,18.23,8.37,7.01,0,*4A
1528448654.79,30755,22.69,74316.5,18.25,8.19,6.79,0,*4F
1528448656.01,30756,22.69,74318.5,18.23,7.65,6.21,0,*43
1528448657.23,30757,22.69,74322.8,18.25,7.61,6.03,0,*40
1528448658.42,30758,22.69,74320.5,18.25,6.93,5.33,0,*43
1528448659.66,30759,22.69,74322.3,18.25,6.53,4.97,0,*41
1528448660.9,30760,22.69,74322.3,18.23,5.99,4.31,0,*44
1528448662.11,30761,22.69,74322.3,18.19,6.07,4.45,0,*4B
1528448663.35,30762,22.69,74322.0,18.21,6.17,4.63,0,*46
1528448664.54,30763,22.69,74320.8,18.21,5.77,4.27,0,*42
1528448665.75,30764,22.69,74320.3,18.19,5.33,4.15,0,*4F
1528448666.95,30765,22.69,74322.3,18.19,5.49,4.27,0,*42
1528448668.17,30766,22.69,74320.5,18.13,5.27,4.01,0,*47
1528448669.39,30767,22.69,74320.3,18.17,5.19,3.79,0,*47
1528448670.6,30768,22.69,74320.0,18.13,5.19,3.79,0,*4C
1528448671.81,30769,22.69,74322.3,18.13,4.71,3.25,0,*4B
1528448673.04,30770,22.69,74318.5,18.11,4.19,2.55,0,*49
1528448674.24,30771,22.69,74320.3,18.11,4.49,2.95,0,*41
1528448675.47,30772,22.69,74316.8,18.11,4.33,2.85,0,*4E
1528448676.69,30773,22.69,74320.0,18.09,4.45,3.15,0,*4F
1528448677.9,30774,22.69,74318.0,18.09,4.41,3.15,0,*4C
1528448679.14,30775,22.69,74320.5,18.07,4.11,2.85,0,*4E
1528448680.37,30776,22.69,74316.8,18.07,2.65,1.29,0,*4D
1528448681.6,30777,22.69,74316.5,18.03,2.21,1.09,0,*4A
1528448682.83,30778,22.69,74322.3,18.03,1.71,0.55,0,*7B
1528448684.05,30779,22.69,74318.0,17.99,2.09,1.13,0,*49
1528448685.31,30780,22.69,74316.5,17.97,2.55,1.85,0,*47
1528448686.51,30781,22.69,74316.8,17.95,2.85,2.35,0,*41
1528448687.71,30782,22.69,74322.3,17.91,2.31,2.05,0,*4A
1528448688.91,30783,22.69,74320.0,17.91,2.27,2.21,0,*4A
1528448690.15,30784,22.69,74316.3,17.89,2.65,2.81,0,*48
1528448691.38,30785,22.69,74316.8,17.87,3.19,3.33,0,*45
1528448692.58,30786,22.69,74320.3,17.87,3.49,3.55,0,*43
1528448693.79,30787,22.69,74316.0,17.83,3.67,3.55,0,*4A
1528448694.98,30788,22.69,74320.5,17.83,4.01,3.55,0,*42
1528448696.19,30789,22.69,74316.0,17.83,3.75,2.91,0,*4E
1528448697.43,30790,22.69,74318.3,17.83,3.79,2.81,0,*4B
1528448698.61,30791,22.69,74316.3,17.83,4.37,3.29,0,*44
1528448699.81,30792,22.69,74322.5,17.79,4.49,3.23,0,*41
1528448701.02,30793,22.69,74316.0,17.79,4.53,3.11,0,*4A
1528448702.23,30794,22.69,74316.5,17.79,3.33,1.83,0,*45
1528448703.44,30795,22.69,74316.0,17.77,4.53,2.99,0,*43
1528448704.65,30796,22.69,74320.8,17.77,4.53,2.99,0,*40
1528448705.86,30797,22.69,74320.8,17.75,3.89,2.01,0,*42
1528448707.07,30798,22.69,74318.8,17.75,4.23,2.39,0,*41
1528448708.25,30799,22.69,74318.3,17.75,4.27,2.27,0,*4B
1528448709.46,30800,22.69,74316.8,17.69,4.07,2.17,0,*48
1528448710.7,30801,22.69,74316.8,17.73,4.33,2.43,0,*44
1528448711.91,30802,22.69,74322.3,17.69,4.41,2.81,0,*47
1528448713.14,30803,22.69,74318.0,17.69,4.01,2.59,0,*47
1528448714.37,30804,22.69,74322.3,17.69,3.97,2.89,0,*45
1528448715.6,30805,22.69,74316.5,17.67,3.93,2.89,0,*4E
1528448716.78,30806,22.69,74320.3,17.65,4.27,3.59,0,*4B
1528448718.01,30807,22.69,74318.3,17.65,4.01,3.71,0,*44
1528448719.24,30808,22.69,74318.3,17.65,3.79,3.53,0,*43
1528448720.5,30809,22.69,74318.5,17.63,4.01,3.79,0,*44
1528448721.68,30810,22.69,74316.0,17.61,4.57,4.07,0,*43
1528448722.89,30811,22.69,74316.8,17.61,4.79,4.23,0,*48
1528448724.09,30812,22.69,74320.8,17.59,4.85,4.19,0,*4A
1528448725.27,30813,22.69,74322.5,17.57,5.07,4.27,0,*43
1528448726.47,30814,22.69,74318.5,17.59,5.23,4.15,0,*4D
1528448727.65,30815,22.69,74320.3,17.57,5.33,4.27,0,*42
1528448728.82,30816,22.69,74316.5,17.57,5.45,4.27,0,*40
1528448730.02,30817,22.69,74318.0,17.57,5.15,3.97,0,*48
1528448731.25,30818,22.69,74322.5,17.57,4.67,3.49,0,*40
1528448732.44,30819,22.69,74318.0,17.53,5.07,4.07,0,*4F
1528448733.64,30820,22.69,74320.0,17.53,4.57,3.67,0,*40
1528448734.82,30821,22.69,74320.8,17.53,4.57,4.07,0,*40
1528448736.06,30822,22.69,74322.5,17.51,4.67,4.33,0,*45
1528448737.26,30823,22.69,74322.0,17.45,4.75,4.19,0,*4A
1528448738.46,30824,22.69,74320.0,17.43,5.29,4.37,0,*4F
1528448739.67,30825,22.69,74322.3,17.41,4.79,3.63,0,*4E
1528448740.87,30826,22.69,74320.5,17.41,4.79,3.29,0,*43
1528448742.08,30827,22.69,74322.3,17.39,4.19,2.91,0,*49
1528448743.29,30828,22.69,74322.0,17.37,4.19,3.15,0,*45
1528448744.52,30829,22.69,74316.0,17.35,4.97,4.19,0,*4B
1528448745.74,30830,22.69,74322.3,17.31,5.27,4.33,0,*45
1528448746.97,30831,22.69,74320.3,17.31,5.73,4.89,0,*44
1528448748.19,30832,22.69,74320.3,17.27,5.99,5.19,0,*4C
1528448749.41,30833,22.69,74320.8,17.29,6.25,5.27,0,*4A
1528448750.63,30834,22.69,74322.3,17.29,6.03,5.01,0,*4D
1528448751.85,30835,22.69,74320.8,17.29,6.25,5.05,0,*4C
1528448753.11,30836,22.69,74320.8,17.27,6.91,5.55,0,*4B
1528448754.35,30837,22.69,74320.5,17.23,6.65,5.19,0,*4D
1528448755.58,30838,22.69,74322.0,17.23,6.75,5.05,0,*4E
1528448756.85,30839,22.69,74318.0,17.23,6.65,4.93,0,*40
1528448758.1,30840,22.69,74320.5,17.21,6.47,4.75,0,*44
1528448759.33,30841,22.69,74320.3,17.21,6.65,5.05,0,*43
1528448760.59,30842,22.69,74318.5,17.23,6.53,4.97,0,*4D
1528448761.86,30843,22.69,74322.0,17.19,6.51,5.05,0,*4D
1528448763.09,30844,22.69,74316.5,17.19,5.63,4.31,0,*4E
1528448764.26,30845,22.69,74316.0,17.17,5.49,4.49,0,*46
1528448765.44,30846,22.69,74318.0,17.17,5.45,4.41,0,*41
1528448766.63,30847,22.69,74320.8,17.17,5.49,4.31,0,*4B
1528448767.81,30848,22.69,74320.8,17.13,5.29,3.93,0,*49
1528448769.04,30849,22.69,74322.3,17.13,5.27,3.67,0,*4D
1528448770.24,30850,22.69,74322.5,17.09,5.37,3.71,0,*48
1528448771.42,30851,22.69,74318.3,17.09,6.07,4.33,0,*48
1528448772.63,30852,22.69,74320.0,17.09,5.85,4.11,0,*42
1528448773.83,30853,22.69,74322.8,17.07,5.99,4.05,0,*45
1528448775.05,30854,22.69,74320.3,17.05,6.33,4.33,0,*46
1528448776.23,30855,22.69,74318.0,17.07,6.25,4.27,0,*47
1528448777.44,30856,22.69,74322.5,17.07,5.99,3.97,0,*4C
1528448778.66,30857,22.69,74322.0,17.05,5.23,3.23,0,*41
1528448779.86,30858,22.69,74320.3,17.07,5.33,3.23,0,*4D
1528448781.06,30859,22.69,74322.5,17.07,5.93,3.85,0,*4A
1528448782.27,30860,22.69,74322.0,17.07,5.89,3.81,0,*4F
1528448783.5,30861,22.69,74326.0,17.07,5.89,3.71,0,*41
1528448784.71,30862,22.69,74320.8,17.09,5.15,2.89,0,*4F
1528448785.89,30863,22.69,74322.5,17.09,4.53,2.31,0,*4E
1528448787.09,30864,22.69,74320.5,17.07,4.79,2.65,0,*4E
1528448788.27,30865,22.69,74320.8,17.07,4.85,2.65,0,*4C
1528448789.51,30866,22.69,74320.8,17.07,4.31,2.17,0,*45
1528448790.71,30867,22.69,74320.3,17.07,4.07,2.01,0,*46
1528448791.94,30868,22.69,74320.0,17.07,3.67,1.59,0,*46
1528448793.17,30869,22.69,74318.5,17.07,3.23,1.09,0,*42
1528448794.42,30870,22.69,74320.8,17.05,2.51,0.51,0,*70
1528448795.67,30871,22.69,74322.3,17.05,2.73,0.91,0,*7D
1528448796.91,30872,22.69,74320.0,16.99,2.77,0.91,0,*7E
1528448798.16,30873,22.69,74318.5,17.01,3.41,1.63,0,*47
1528448799.39,30874,22.69,74318.5,16.99,3.37,1.63,0,*41
1528448800.65,30875,22.69,74322.3,16.97,3.71,2.13,0,*48
1528448801.91,30876,22.69,74320.8,16.97,3.71,2.13,0,*4B
1528448803.11,30877,22.69,74320.3,16.97,3.85,2.31,0,*41
1528448804.38,30878,22.69,74320.3,16.97,3.75,2.17,0,*45
1528448805.61,30879,22.69,74320.5,16.99,4.01,2.43,0,*4F
1528448806.81,30880,22.69,74322.3,16.99,4.01,2.35,0,*48
1528448808.0,30881,22.69,74320.8,16.99,4.19,2.65,0,*45
1528448809.25,30882,22.69,74320.3,17.01,4.01,2.59,0,*40
1528448810.46,30883,22.69,74318.5,16.99,4.23,2.69,0,*42
1528448811.7,30884,22.69,74320.0,16.99,4.31,2.81,0,*40
1528448812.93,30885,22.69,74318.5,17.01,4.27,2.81,0,*46
1528448814.16,30886,22.69,74322.0,17.01,4.23,2.81,0,*41
1528448815.39,30887,22.69,74322.3,17.01,4.15,2.69,0,*43
1528448816.62,30888,22.69,74322.0,17.01,3.93,2.59,0,*46
1528448817.85,30889,22.69,74320.0,17.01,3.93,2.59,0,*47
1528448819.06,30890,22.69,74318.8,16.99,3.81,2.39,0,*4A
1528448820.28,30891,22.69,74320.0,17.01,3.55,2.25,0,*4F
1528448821.52,30892,22.69,74326.8,17.01,3.33,1.97,0,*46
1528448822.75,30893,22.69,74318.5,16.99,3.53,2.05,0,*49
1528448824.0,30894,22.69,74320.3,17.01,3.79,2.21,0,*40
1528448825.2,30895,22.69,74322.8,16.99,3.53,1.83,0,*42
1528448826.41,30896,22.69,74322.3,16.99,3.53,1.83,0,*41
1528448827.65,30897,22.69,74322.0,16.99,4.31,2.55,0,*4B
1528448828.83,30898,22.69,74320.3,16.99,4.23,2.35,0,*41
1528448830.06,30899,22.69,74322.3,16.97,4.05,2.27,0,*49
1528448831.3,30900,22.69,74320.0,16.99,4.79,3.03,0,*4A
1528448832.53,30901,22.69,74322.0,16.99,4.67,2.69,0,*49
1528448833.76,30902,22.69,74322.5,16.99,4.67,2.69,0,*4A
1528448834.99,30903,22.69,74320.3,16.99,4.31,2.25,0,*40
1528448836.2,30904,22.69,74316.5,16.99,4.31,2.31,0,*42
1528448837.41,30905,22.69,74318.5,16.99,4.19,2.17,0,*4D
1528448838.6,30906,22.69,74320.8,16.99,4.11,2.31,0,*42
1528448839.81,30907,22.69,74320.0,17.01,4.37,2.61,0,*42
1528448841.03,30908,22.69,74320.0,17.01,4.23,2.39,0,*45
1528448842.26,30909,22.69,74320.8,17.01,4.23,2.51,0,*4A
1528448843.47,30910,22.69,74322.5,17.07,4.31,2.65,0,*40
1528448844.7,30911,22.69,74320.0,17.05,3.81,2.01,0,*4D
1528448845.9,30912,22.69,74322.5,17.07,3.49,1.79,0,*44
1528448847.12,30913,22.69,74322.5,17.05,3.55,1.97,0,*4A
1528448848.35,30914,22.69,74322.3,17.07,3.23,1.67,0,*41
1528448849.57,30915,22.69,74322.3,17.07,3.11,1.59,0,*4C
1528448850.8,30916,22.69,74320.8,17.05,2.47,1.01,0,*42
1528448852.03,30917,22.69,74320.0,17.05,2.99,1.63,0,*44
1528448853.25,30918,22.69,74320.8,17.07,3.49,2.13,0,*41
1528448854.5,30919,22.69,74320.8,17.05,2.21,0.79,0,*73
1528448855.75,30920,22.69,74322.5,17.05,2.09,0.83,0,*76
1528448856.97,30921,22.69,74322.8,17.05,2.35,0.79,0,*7D
1528448858.17,30922,22.69,74320.5,16.99,3.59,2.47,0,*4E
1528448859.41,30923,22.69,74322.8,16.99,2.81,1.37,0,*4F
1528448860.63,30924,22.69,74320.0,16.99,1.21,0.05,0,*41
1528448861.89,30925,22.69,74322.8,16.97,1.33,0.47,0,*7B
1528448863.12,30926,22.69,74326.0,16.95,1.55,0.71,0,*7F
1528448864.36,30927,22.69,74324.3,16.95,1.21,0.55,0,*7B
1528448865.59,30928,22.69,74320.0,16.91,0.51,-0.23,0,*6A
1528448866.82,30929,22.69,74320.3,16.89,-0.03,-1.09,0,*41
1528448868.03,30930,22.69,74322.0,16.87,0.47,-0.49,0,*6F
1528448869.27,30931,22.69,74320.3,16.83,1.13,0.21,0,*79
1528448870.51,30932,22.69,74320.3,16.83,1.13,0.21,0,*7A
1528448871.75,30933,22.69,74322.5,16.81,0.55,-0.37,0,*60
1528448872.97,30934,22.69,74320.3,16.75,0.29,-0.77,0,*63
1528448874.16,30935,22.69,74318.0,16.73,-0.57,-1.51,0,*75
1528448875.35,30936,22.69,74314.8,16.69,-0.57,-1.33,0,*79
1528448876.56,30937,22.69,74322.8,16.65,0.25,-0.41,0,*68
1528448877.75,30938,22.69,74318.5,16.65,0.21,-0.29,0,*6D
1528448878.95,30939,22.69,74316.8,16.61,0.29,-0.19,0,*63
1528448880.18,30940,22.69,74316.5,16.61,0.87,0.51,0,*48
1528448881.37,30941,22.69,74318.3,16.61,0.41,0.01,0,*76
1528448882.63,30942,22.69,74314.3,16.55,1.09,0.71,0,*78
1528448883.88,30943,22.69,74322.3,16.55,0.95,0.59,0,*47
1528448885.06,30944,22.69,74318.0,16.53,0.43,0.25,0,*46
1528448886.3,30945,22.69,74322.5,16.53,1.29,1.17,0,*4A
1528448887.56,30946,22.69,74322.0,16.51,1.63,1.51,0,*47
1528448888.82,30947,22.69,74320.3,16.51,1.63,1.63,0,*47
1528448890.06,30948,22.69,74324.0,16.51,1.67,1.75,0,*4B
1528448891.32,30949,22.69,74320.3,16.51,1.51,1.47,0,*4E
1528448892.56,30950,22.69,74322.8,16.51,1.67,1.79,0,*4E
1528448893.76,30951,22.69,74322.3,16.49,1.75,1.63,0,*4E
1528448895.04,30952,22.69,74318.5,16.51,1.29,1.17,0,*4E
1528448896.24,30953,22.69,74318.5,16.51,1.41,1.41,0,*42
1528448897.5,30954,22.69,74324.3,16.47,1.37,1.43,0,*41
1528448898.74,30955,22.69,74320.0,16.47,1.83,1.93,0,*42
1528448899.94,30956,22.69,74320.8,16.49,2.31,2.21,0,*4F
1528448901.15,30957,22.69,74324.8,16.49,2.31,2.25,0,*4A
1528448902.39,30958,22.69,74322.0,16.49,2.47,2.69,0,*4C
1528448903.63,30959,22.69,74320.3,16.49,1.13,1.17,0,*45
1528448904.86,30960,22.69,74322.8,16.47,1.09,0.97,0,*73
1528448906.12,30961,22.69,74322.0,16.47,1.63,1.47,0,*42
1528448907.36,30962,22.69,74320.8,16.45,1.51,1.21,0,*42
1528448908.57,30963,22.69,74320.3,16.43,1.41,1.13,0,*45
1528448909.83,30964,22.69,74320.5,16.41,1.29,1.17,0,*4A
1528448911.1,30965,22.69,74326.8,16.41,1.37,1.13,0,*40
1528448912.34,30966,22.69,74322.5,16.39,2.43,2.09,0,*44
1528448913.57,30967,22.69,74322.0,16.39,2.59,2.05,0,*42
1528448914.81,30968,22.69,74320.8,16.37,2.95,2.43,0,*41
1528448916.07,30969,22.69,74322.5,16.33,2.43,1.51,0,*4F
1528448917.3,30970,22.69,74322.8,16.37,2.65,1.47,0,*40
1528448918.56,30971,22.69,74320.3,16.33,3.15,1.89,0,*41
1528448919.81,30972,22.69,74320.3,16.31,3.15,1.85,0,*4C
1528448921.04,30973,22.69,74320.8,16.31,2.81,1.43,0,*4B
1528448922.26,30974,22.69,74324.3,16.31,3.07,1.75,0,*46